SKY MUSTER 2 (NBN1B)

Last updated on Thu Jul 03 2025 00:02:47 GMT+0000 (Coordinated Universal Time)

1 41794U 16060B 25183.59535782 -.00000237 00000+0 00000+0 0 9992 2 41794 0.0184 343.0334 0001588 116.4530 180.5075 1.00271009 32014
UTC large
Height (km)
Speed (km/s)
/
Latitude / Longitude
Inclination (degrees)
Orbital Period (minutes)
Azimuth
Elevation
Range (km)
Doppler Factor

Next 0 passes for location: London (51.5072 / 0.1276)

Sorry there are no passes over London.